Atlanta, GA

6:27 AM EST on December 13, 2019 (GMT -0500)
The Hartsfield Atlanta International

Weather History for KATL - October, 2019

Change the Weather History Date:

Friday, October 11, 2019

  Actual Average Record
Temperature  
Mean Temperature 70 °F 65 °F  
Max Temperature 81 °F 74 °F 88 °F (2017)
Min Temperature 60 °F 56 °F 31 °F (1906)
Degree Days  
Heating Degree Days 0 3  
Month to date heating degree days 0 21  
Since 1 July heating degree days 0 32  
Cooling Degree Days 6 3  
Month to date cooling degree days 136 38  
Year to date cooling degree days 2613 1843  
Growing Degree Days 20 (Base 50)    
Moisture  
Dew Point 54 °F    
Average Humidity 58    
Maximum Humidity 80    
Minimum Humidity 36    
Precipitation  
Precipitation 0.00 in 0.12 in 1.49 in (1897)
Month to date precipitation 0.00 1.39  
Year to date precipitation 32.33 39.69  
Sea Level Pressure  
Sea Level Pressure 30.10 in    
Wind  
Wind Speed 4 mph ()    
Max Wind Speed 9 mph    
Max Gust Speed 13 mph    
Visibility 10.0 miles    
Events      
T = Trace of Precipitation, MM = Missing Value Source: Averaged Metar Reports

Daily Weather History Graph

Daily Weather History Graph

Search for Another Location

Airport or City:

Astronomy

Oct. 11, 2019 Rise Set
Actual Time 7:39 AM EDT 7:09 PM EDT
Civil Twilight 7:14 AM EDT 7:34 PM EDT
Nautical Twilight 6:45 AM EDT 8:02 PM EDT
Astronomical Twilight 6:16 AM EDT 8:31 PM EDT
Moon 6:29 PM EDT (10/11) 5:29 AM EDT (10/11)
Length of Visible Light 12h 19m
Length of Day
11h 29m
Waxing Gibbous, 96% of the Moon is Illuminated
Oct 11
Waxing Gibbous
Oct 13
Full
Oct 21
Last Quarter
Oct 27
New
Nov 4
First Quarter

Hourly Weather History & Observations

Time (EDT) Temp. Heat Index Dew Point Humidity Pressure Visibility Wind Dir Wind Speed Gust Speed Precip Events Conditions
12:52 AM 66.0 °F - 55.9 °F 70% 30.13 in 10.0 mi East 5.8 mph - N/A   Clear
1:52 AM 64.0 °F - 55.0 °F 73% 30.12 in 10.0 mi East 5.8 mph - N/A   Clear
2:52 AM 64.9 °F - 54.0 °F 68% 30.10 in 10.0 mi ESE 5.8 mph - N/A   Partly Cloudy
3:52 AM 64.0 °F - 54.0 °F 70% 30.10 in 10.0 mi ESE 6.9 mph - N/A   Partly Cloudy
4:52 AM 63.0 °F - 54.0 °F 72% 30.10 in 10.0 mi ESE 5.8 mph - N/A   Scattered Clouds
5:52 AM 62.1 °F - 54.0 °F 75% 30.11 in 10.0 mi East 5.8 mph - N/A   Scattered Clouds
6:52 AM 60.1 °F - 53.1 °F 78% 30.13 in 10.0 mi East 5.8 mph - N/A   Partly Cloudy
7:52 AM 60.1 °F - 54.0 °F 80% 30.14 in 10.0 mi East 5.8 mph - N/A   Partly Cloudy
8:52 AM 62.1 °F - 54.0 °F 75% 30.16 in 10.0 mi East 4.6 mph - N/A   Partly Cloudy
9:52 AM 66.9 °F - 57.0 °F 70% 30.17 in 10.0 mi SE 4.6 mph - N/A   Partly Cloudy
10:52 AM 71.1 °F - 57.0 °F 61% 30.17 in 10.0 mi Variable 6.9 mph - N/A   Partly Cloudy
11:52 AM 75.0 °F - 55.9 °F 51% 30.15 in 10.0 mi Variable 3.5 mph - N/A   Scattered Clouds
12:52 PM 73.0 °F - 55.0 °F 53% 30.14 in 10.0 mi Calm Calm - N/A   Scattered Clouds
1:52 PM 75.0 °F - 54.0 °F 48% 30.11 in 10.0 mi Calm Calm - N/A   Mostly Cloudy
2:52 PM 78.1 °F - 52.0 °F 40% 30.07 in 10.0 mi Variable 3.5 mph - N/A   Mostly Cloudy
3:52 PM 80.1 °F 79.9 °F 53.1 °F 39% 30.05 in 10.0 mi Variable 5.8 mph - N/A   Scattered Clouds
4:52 PM 80.1 °F - 52.0 °F 38% 30.04 in 10.0 mi Calm Calm - N/A   Partly Cloudy
5:52 PM 79.0 °F - 52.0 °F 39% 30.04 in 10.0 mi SSE 3.5 mph - N/A   Scattered Clouds
6:52 PM 75.9 °F - 53.1 °F 45% 30.05 in 10.0 mi South 5.8 mph - N/A   Mostly Cloudy
7:52 PM 75.0 °F - 53.1 °F 46% 30.05 in 10.0 mi South 4.6 mph - N/A   Mostly Cloudy
9:52 PM 71.1 °F - 51.1 °F 49% 30.06 in 10.0 mi SSE 4.6 mph - N/A   Scattered Clouds
10:52 PM 71.1 °F - 52.0 °F 51% 30.05 in 10.0 mi SE 3.5 mph - N/A   Mostly Cloudy
11:52 PM 70.0 °F - 52.0 °F 53% 30.05 in 10.0 mi SSE 3.5 mph - N/A   Mostly Cloudy